Now boarding.
Please wait.

menu

our worldwide Hubs

Our Hubs

GlobalOne creates a global network with its airline members connecting the globe. Our hubs are strategically placed to form a network of maximum connectivity and enabling our pilots to fly any part of the world. Spanning all the way from Europe to Asia & South America, GlobalOne has the most comprehensive Virtual Airline network, distinguishing us from the rest.

NZAA Auckland International Airport

Airport Information METAR Runway Information

Current Weather:

NZAA 180800Z AUTO 20011KT 9999 BKN032/// 19/13 Q1015 BECMG VRB02KT

Runway Facts:

Direction Length m Length ft Elevation m Elevation ft Surface
05R/23L 3,535 11,926 7 m 23 ft Concrete

EBBR Brussels International Airport

Airport Information METAR Runway Information

Current Weather:

EBBR 180820Z 19008KT CAVOK 08/00 Q1018 NOSIG

Runway Facts:

Direction Length m Length ft Elevation m Elevation ft Surface
01/19 2,987 9,800 56 m 184 ft Asphalt
07R/25L 3,211 10,535 56 m 184 ft Asphalt
07L/25R 3,638 11,936 56 m 184 ft Asphalt

LEBL Barcelona El-Prat

Airport Information METAR Runway Information

Current Weather:

LEBL 180800Z 33013KT 7000 FEW022 06/03 Q1024 NOSIG

Runway Facts:

Direction Length m Length ft Elevation m Elevation ft Surface
07L/25R 3,743 12,281 4 m 14 ft Asphalt concrete
07R/25L 2,660 8,727 4 m 14 ft Asphalt concrete
02/20 2,528 8,293 4 m 14 ft Asphalt concrete

SVMI Caracas Simón Bolívar International Airport

Airport Information METAR Runway Information

Current Weather:

SVMI 180800Z 00000KT 9999 FEW016 22/21 Q1013

Runway Facts:

Direction Length m Length ft Elevation m Elevation ft Surface
10/28 3,610 11,483 72 m 235 ft Asphalt
09/27 3,270 9,930 72 m 235 ft Asphalt

LEMD Madrid Barajas

Airport Information METAR Runway Information

Current Weather:

LEMD 180800Z 34003KT 310V010 CAVOK 01/M01 Q1020 NOSIG

Runway Facts:

Direction Length m Length ft Elevation m Elevation ft Surface
14R/32L 4,100 13,451 610 m 2,000 ft Asphalt
18L/36R 3,500 11,482 610 m 2,000 ft Asphalt
14L/32R 3,500 11,482 610 m 2,000 ft Asphalt
18R/36L 4,350 14,268 610 m 2,000 ft Asphalt/Concrete

LEMG Malaga

Airport Information METAR Runway Information

Current Weather:

LEMG 180800Z 29005KT 9999 FEW020 08/07 Q1018 NOSIG

Runway Facts:

Direction Length m Length ft Elevation m Elevation ft Surface
13/31 3,200 10,500 16 m 52 ft Asphalt
12/30 2,750 9,022 16 m 52 ft Asphalt

OJAI Queen Alia International Airport

Airport Information METAR Runway Information

Current Weather:

OJAI 180800Z 23004KT 5000 HZ FEW025 SCT070 07/04 Q1019 NOSIG

Runway Facts:

Direction Length m Length ft Elevation m Elevation ft Surface
08R/26L 3,660 12,008 730 m 2,395 ft Concrete
08L/26R 3,660 12,008 730 m 2,395 ft Asphalt

KRSW Southwest Florida International Airport

Airport Information METAR Runway Information

Current Weather:

KRSW 180753Z AUTO 14005KT 10SM SCT041 SCT060 22/21 A3002 RMK AO2 SLP162 T02220211

Runway Facts:

Direction Length m Length ft Elevation m Elevation ft Surface
06/24 3,658 12,000 9 m 30 ft Asphalt